[[{"header":{"parameterUnit":"m.s-1","parameterCategory":1,"la1":30.2991,"la2":30.254,"lo1":-89.0895,"lo2":-89.0444,"dy":0.0017,"dx":0.0017,"nx":28,"ny":28,"refTime":"2023-07-20T03:00:00:Z","depth":0,"parameterNumber":2,"parameterNumberName":"U-component_of_WINDS"},"data":[0,0,0,0,0,0,0,0,0,0,0,0,0,0,0,0,0,0,0,0,0,0,0,0,0,0,0,0,0,0,0,0,0,0,0,0,0,0,0,0,0,0,0,0,0,0,0,0,0,0,0,0,0,0,0,0,0,0,-1.189,-1.1889,0,-1.1777,-1.1776,-1.1774,-1.1716,-1.1716,-1.1716,-1.1716,-1.1597,-1.1593,-1.159,0,0,0,0,0,0,0,0,0,0,0,0,0,-1.2055,-1.2052,-1.189,-1.1889,-1.1888,-1.1777,-1.1776,-1.1774,-1.1716,-1.1716,-1.1716,-1.1716,-1.1598,-1.1594,-1.159,0,0,0,0,0,0,0,0,0,0,0,0,0,-1.1967,-1.2051,-1.1891,-1.1846,-1.184,-1.1777,-1.1776,-1.1774,-1.1716,-1.1716,-1.1716,-1.1716,-1.1599,-1.1594,-1.159,-1.1562,0,0,-1.1575,-1.1573,0,0,0,0,0,0,0,0,-1.1972,-1.1961,-1.1854,-1.1849,-1.1843,-1.1761,-1.179,-1.1702,-1.1716,-1.1763,-1.1716,-1.1716,-1.1651,-1.1642,-1.1621,-1.1556,-1.1551,-1.1575,-1.1572,-1.157,-1.1568,0,0,0,0,0,0,0,-1.1978,-1.1965,-1.1845,-1.1852,-1.1845,-1.183,-1.1818,-1.1773,-1.1709,-1.1759,-1.1755,-1.1742,-1.1648,-1.1625,-1.1617,-1.1549,-1.1575,-1.1571,-1.1568,-1.1566,-1.1457,-1.1457,0,0,0,0,0,0,-1.1992,-1.1971,-1.1849,-1.1842,-1.1909,-1.1828,-1.1813,-1.1787,-1.1709,-1.1697,-1.1743,-1.174,-1.1634,-1.1623,-1.1613,-1.1576,-1.157,-1.1565,-1.1563,-1.1457,-1.1457,-1.1457,0,0,0,0,0,0,-1.1995,-1.1981,-1.1854,-1.1905,-1.1888,-1.1825,-1.1796,-1.1785,-1.1762,-1.1697,-1.1685,-1.1732,-1.1633,-1.162,-1.1575,-1.1571,-1.1563,-1.1559,-1.1457,-1.1457,-1.1457,-1.1501,0,0,0,0,0,0,-1.2,-1.1983,-1.1972,-1.1905,-1.1885,-1.1819,-1.1795,-1.1783,-1.1755,-1.1751,-1.1683,-1.1672,-1.1632,-1.1583,-1.1571,-1.1564,-1.1555,-1.1457,-1.1457,-1.1457,-1.15,-1.1503,-1.1505,0,0,0,0,0,-1.2007,-1.1988,-1.1972,-1.1958,-1.1871,-1.1818,-1.1807,-1.1763,-1.1755,-1.1743,-1.1701,-1.1674,-1.1574,-1.1579,-1.1565,-1.1557,-1.1457,-1.1457,-1.1457,-1.1499,-1.1502,-1.1505,0,0,0,0,0,0,-1.2054,-1.1978,-1.196,-1.1919,-1.1876,-1.1809,-1.1793,-1.1767,-1.1724,-1.1722,-1.1668,-1.1653,-1.1614,-1.1581,-1.1588,-1.1526,-1.1513,-1.151,-1.1549,-1.1552,-1.1555,-1.1563,-1.1551,0,0,0,0,0,-1.2061,-1.2026,-1.1961,-1.1931,-1.1911,-1.1856,-1.1831,-1.1801,-1.1754,-1.1735,-1.1689,-1.1643,-1.1602,-1.1575,-1.1533,-1.1495,-1.148,-1.1483,-1.1486,-1.1488,-1.1486,-1.1464,-1.1465,-1.1456,-1.1456,-1.1456,0,0,-1.2072,-1.2027,-1.2007,-1.194,-1.1903,-1.1867,-1.1841,-1.1804,-1.1777,-1.1728,-1.1684,-1.165,-1.1595,-1.1554,-1.1534,-1.1525,-1.1485,-1.1488,-1.149,-1.1487,-1.1464,-1.1465,-1.1466,-1.1456,-1.1456,-1.1456,0,0,-1.2076,-1.2038,-1.201,-1.1973,-1.1918,-1.1882,-1.1876,-1.1812,-1.1788,-1.1744,-1.1707,-1.1674,-1.1603,-1.1566,-1.1537,-1.1529,-1.1503,-1.1517,-1.153,-1.151,-1.1511,-1.1511,-1.1508,-1.1508,-1.1515,-1.1515,-1.1515,0,-1.2097,-1.2043,-1.1998,-1.1964,-1.1935,-1.1892,-1.1863,-1.183,-1.1763,-1.1744,-1.1736,-1.1647,-1.1607,-1.1558,-1.1556,-1.1535,-1.1525,-1.1524,-1.1514,-1.1514,-1.1514,-1.1511,-1.151,-1.1517,-1.1517,-1.1517,-1.1517,0,-1.2072,-1.2035,-1.2019,-1.1958,-1.1927,-1.1896,-1.1846,-1.182,-1.1794,-1.1758,-1.1714,-1.1665,-1.1612,-1.1599,-1.1571,-1.1545,-1.1542,-1.1525,-1.151,-1.1518,-1.1514,-1.1512,-1.152,-1.152,-1.1519,-1.1518,0,0,-1.21,-1.2017,-1.2011,-1.1984,-1.1921,-1.1891,-1.1858,-1.1808,-1.1788,-1.1744,-1.1714,-1.1657,-1.1641,-1.1609,-1.1577,-1.156,-1.1557,-1.1544,-1.1542,-1.1549,-1.1527,-1.154,-1.1539,-1.154,-1.1539,-1.1539,-1.1531,0,-1.2095,-1.2035,-1.1994,-1.195,-1.1915,-1.1875,-1.1846,-1.1804,-1.1771,-1.1736,-1.1699,-1.1659,-1.1641,-1.1622,-1.1602,-1.1562,-1.1552,-1.1562,-1.1511,-1.151,-1.1526,-1.1537,-1.1551,-1.1546,-1.153,-1.1529,-1.1529,0,-1.208,-1.2039,-1.1992,-1.1934,-1.1918,-1.1893,-1.1845,-1.1813,-1.1764,-1.1741,-1.1707,-1.1676,-1.1639,-1.1628,-1.1577,-1.1584,-1.1562,-1.1539,-1.1537,-1.1531,-1.152,-1.1531,-1.1543,-1.1543,-1.1526,-1.1526,-1.1527,0,-1.2106,-1.2039,-1.2002,-1.198,-1.1911,-1.1895,-1.1865,-1.1817,-1.1791,-1.1749,-1.1731,-1.1685,-1.1659,-1.1624,-1.1581,-1.1577,-1.1534,-1.152,-1.1514,-1.1515,-1.1506,-1.1507,-1.1515,-1.1492,-1.1492,-1.1492,-1.1492,0,-1.2104,-1.2077,-1.2014,-1.1991,-1.1959,-1.1913,-1.1883,-1.185,-1.1808,-1.1778,-1.174,-1.1712,-1.1657,-1.1622,-1.1588,-1.1551,-1.154,-1.152,-1.1511,-1.1523,-1.1526,-1.1507,-1.1506,-1.1491,-1.1491,-1.1492,-1.1492,0,-1.2127,-1.2084,-1.2041,-1.1981,-1.1965,-1.1945,-1.1892,-1.1869,-1.1834,-1.1797,-1.1785,-1.1731,-1.1689,-1.1643,-1.1584,-1.1561,-1.1527,-1.1514,-1.1543,-1.1538,-1.1535,-1.1536,-1.1531,-1.1528,-1.1508,-1.1508,-1.1508,0,-1.2129,-1.2107,-1.2045,-1.2023,-1.1995,-1.1959,-1.1933,-1.1887,-1.186,-1.1805,-1.1788,-1.1744,-1.1706,-1.164,-1.1595,-1.1551,-1.1537,-1.1538,-1.153,-1.1543,-1.1537,-1.1539,-1.1537,-1.154,-1.1541,-1.1541,-1.1541,0,-1.2136,-1.2116,-1.2079,-1.2036,-1.2005,-1.1968,-1.193,-1.1914,-1.186,-1.1832,-1.179,-1.1761,-1.1703,-1.1659,-1.161,-1.1578,-1.1551,-1.1545,-1.1541,-1.1553,-1.1571,-1.1562,-1.155,-1.1545,-1.1544,-1.1544,-1.1544,-1.1544,-1.2148,-1.2127,-1.2081,-1.2042,-1.2008,-1.1974,-1.1949,-1.1913,-1.1877,-1.1827,-1.1802,-1.176,-1.1713,-1.1644,-1.1614,-1.1581,-1.1572,-1.1566,-1.1565,-1.1564,-1.1568,-1.1577,-1.1571,-1.1571,-1.1571,-1.1571,-1.1571,0,-1.2153,-1.2122,-1.2087,-1.2035,-1.2004,-1.1983,-1.194,-1.1915,-1.1879,-1.1839,-1.1803,-1.1755,-1.1713,-1.1665,-1.162,-1.1602,-1.1589,-1.1592,-1.1593,-1.1586,-1.1578,-1.1586,-1.1604,-1.1604,-1.1604,-1.1604,-1.1604,-1.1604,-1.2152,-1.2116,-1.2092,-1.2039,-1.2008,-1.1967,-1.1944,-1.1912,-1.188,-1.1829,-1.1794,-1.1764,-1.1721,-1.1673,-1.1633,-1.162,-1.1606,-1.1613,-1.1596,-1.1589,-1.1586,-1.1584,-1.1591,-1.161,-1.161,-1.1607,-1.1607,-1.1607]},{"header":{"parameterUnit":"m.s-1","parameterCategory":1,"la1":30.2991,"la2":30.254,"lo1":-89.0895,"lo2":-89.0444,"dy":0.0017,"dx":0.0017,"nx":28,"ny":28,"refTime":"2023-07-20T03:00:00:Z","depth":0,"parameterNumber":3,"parameterNumberName":"V-component_of_WINDS"},"data":[0,0,0,0,0,0,0,0,0,0,0,0,0,0,0,0,0,0,0,0,0,0,0,0,0,0,0,0,0,0,0,0,0,0,0,0,0,0,0,0,0,0,0,0,0,0,0,0,0,0,0,0,0,0,0,0,0,0,4.0038,4.0037,0,3.9961,3.996,3.9959,3.9953,3.9954,3.9954,3.9955,3.9868,3.9865,3.9862,0,0,0,0,0,0,0,0,0,0,0,0,0,4.0171,4.0169,4.0038,4.0037,4.0036,3.9961,3.996,3.9959,3.9953,3.9954,3.9955,3.9956,3.9869,3.9865,3.9862,0,0,0,0,0,0,0,0,0,0,0,0,0,4.0106,4.0168,4.0038,4.0024,4.0022,3.9961,3.996,3.9959,3.9952,3.9954,3.9955,3.9956,3.987,3.9866,3.9861,3.9807,0,0,3.9847,3.9845,0,0,0,0,0,0,0,0,4.0109,4.0101,4.0027,4.0025,4.0023,3.9968,3.9975,3.9908,3.9952,3.9978,3.9955,3.9957,3.99,3.9893,3.9875,3.9803,3.9799,3.9846,3.9844,3.9842,3.984,0,0,0,0,0,0,0,4.0114,4.0104,4.0007,4.0026,4.0023,4.0019,4.0011,3.9962,3.9933,3.9976,3.9976,3.9967,3.9899,3.988,3.9873,3.9798,3.9847,3.9842,3.984,3.9838,3.9676,3.9675,0,0,0,0,0,0,4.0122,4.0108,4.001,4.0005,4.007,4.0016,4.0007,3.9984,3.9933,3.9927,3.9966,3.9967,3.9887,3.9879,3.987,3.9803,3.9842,3.9837,3.9835,3.9678,3.9676,3.9674,0,0,0,0,0,0,4.0125,4.0114,4.0013,4.0056,4.0043,4.0012,3.9986,3.9982,3.9963,3.9926,3.9919,3.9953,3.9888,3.9877,3.9823,3.98,3.9835,3.9831,3.968,3.9677,3.9675,3.9669,0,0,0,0,0,0,4.0129,4.0115,4.0096,4.0056,4.0041,3.997,3.9985,3.9979,3.9956,3.9957,3.9911,3.9905,3.9888,3.983,3.9819,3.9794,3.9827,3.9681,3.9679,3.9676,3.9671,3.9666,3.9663,0,0,0,0,0,4.0134,4.0095,4.0095,4.0083,4.0017,3.9968,3.9959,3.9943,3.9954,3.9933,3.9909,3.9907,3.9805,3.9825,3.9812,3.9785,3.9683,3.9679,3.9676,3.9672,3.9667,3.9663,0,0,0,0,0,0,4.0129,4.0089,4.0089,4.0036,4.0006,3.9967,3.9941,3.9938,3.9901,3.9903,3.9881,3.9871,3.9818,3.9796,3.982,3.973,3.9745,3.9738,3.9746,3.9741,3.9737,3.9743,3.9823,0,0,0,0,0,4.0123,4.009,4.0055,4.0012,3.9998,3.9972,3.995,3.994,3.9907,3.9893,3.9865,3.9831,3.9791,3.9765,3.9726,3.9668,3.9657,3.9643,3.9639,3.9636,3.963,3.9597,3.9591,3.9663,3.9663,3.9664,0,0,4.0108,4.0082,4.0062,4.0011,3.9986,3.995,3.9961,3.9922,3.9894,3.9886,3.9835,3.9813,3.9773,3.9717,3.9691,3.9697,3.9608,3.9632,3.963,3.9626,3.9593,3.9586,3.958,3.9661,3.9662,3.9662,0,0,4.0062,4.004,4.0002,3.9978,3.9941,3.9925,3.9916,3.9877,3.9864,3.9813,3.9806,3.9771,3.9703,3.9675,3.9651,3.9596,3.9592,3.9584,3.9562,3.953,3.9525,3.9519,3.9499,3.9492,3.9579,3.9579,3.9579,0,4.0047,3.9995,3.9981,3.9943,3.992,3.9915,3.9875,3.9851,3.9803,3.9786,3.9794,3.971,3.9682,3.9619,3.9606,3.9588,3.9575,3.9588,3.9527,3.9522,3.9517,3.9497,3.9489,3.9578,3.9578,3.9578,3.9578,0,3.9978,3.9942,3.9915,3.9872,3.9846,3.9806,3.9785,3.976,3.9752,3.9734,3.9681,3.9649,3.9603,3.9588,3.9578,3.9523,3.9528,3.9532,3.9546,3.9509,3.949,3.9482,3.9577,3.9577,3.9577,3.9578,0,0,3.9926,3.9878,3.9868,3.9848,3.9808,3.9779,3.9738,3.9697,3.9675,3.9642,3.9607,3.955,3.9554,3.9527,3.9515,3.9487,3.9445,3.9494,3.9493,3.9486,3.9381,3.9378,3.9369,3.9442,3.9441,3.9439,3.9384,0,3.9875,3.9807,3.9794,3.9733,3.9699,3.9694,3.9658,3.9629,3.9611,3.9577,3.9555,3.9516,3.9524,3.9508,3.9481,3.9456,3.9423,3.946,3.9407,3.9405,3.9416,3.9359,3.9356,3.9305,3.9376,3.9375,3.9374,0,3.9806,3.9775,3.9712,3.9677,3.9662,3.9631,3.9592,3.9561,3.9526,3.9515,3.9486,3.9478,3.9433,3.9451,3.9388,3.9414,3.9391,3.9376,3.9373,3.9367,3.9387,3.935,3.9288,3.928,3.9362,3.9363,3.9364,0,3.9774,3.9716,3.9671,3.9654,3.9612,3.9591,3.9572,3.9539,3.9515,3.948,3.9464,3.9423,3.94,3.9368,3.9347,3.9362,3.9286,3.9302,3.9274,3.9274,3.9257,3.9258,3.919,3.9244,3.9244,3.9244,3.9245,0,3.9718,3.9679,3.9656,3.9628,3.9584,3.9568,3.9524,3.9505,3.9476,3.9443,3.9435,3.9403,3.9379,3.9342,3.9326,3.9276,3.9266,3.9254,3.925,3.9254,3.9256,3.9238,3.9241,3.9242,3.9243,3.9243,3.9244,0,3.9674,3.9657,3.9607,3.9573,3.9564,3.9533,3.9502,3.9473,3.9456,3.9413,3.9402,3.9374,3.9331,3.9308,3.9254,3.9243,3.9187,3.9185,3.9199,3.9197,3.917,3.9173,3.9087,3.9075,3.9139,3.9138,3.9137,0,3.9639,3.961,3.9574,3.9552,3.9534,3.9499,3.9475,3.9459,3.9434,3.9393,3.9369,3.9327,3.9292,3.9223,3.9196,3.9154,3.9151,3.9123,3.9144,3.9149,3.9149,3.9151,3.9148,3.9119,3.9119,3.9118,3.9118,0,3.9579,3.9573,3.954,3.9505,3.9478,3.9448,3.9419,3.9401,3.9379,3.9351,3.9309,3.9283,3.9229,3.9186,3.9142,3.912,3.9114,3.9112,3.9103,3.9107,3.9117,3.911,3.9189,3.9114,3.9114,3.9114,3.9115,3.9115,3.9538,3.9512,3.9483,3.9447,3.9424,3.9397,3.9369,3.9349,3.9315,3.9272,3.9263,3.9218,3.9184,3.9125,3.9102,3.9065,3.907,3.9057,3.9054,3.9051,3.9049,3.9124,3.9057,3.9057,3.9057,3.9057,3.9057,0,3.9477,3.9459,3.9426,3.9387,3.9358,3.9359,3.9327,3.9302,3.9264,3.9234,3.9201,3.9152,3.9111,3.9081,3.9039,3.9015,3.9011,3.9004,3.9005,3.9,3.9048,3.9059,3.9008,3.9008,3.9008,3.9008,3.9008,3.9008,3.9442,3.9398,3.9388,3.9331,3.9312,3.9271,3.9252,3.9226,3.9203,3.915,3.9117,3.9099,3.9068,3.9024,3.8985,3.8977,3.8961,3.8954,3.8946,3.8991,3.8996,3.9001,3.9012,3.8951,3.8951,3.8901,3.8901,3.89]}]]